User: anonymous   Login
Location: Unspecified
(0.0000°N, 0.0000°E)
Time: 09:23:52
(UTC+00:00)
Language:

COSMOS 2497 - Orbit

View from above orbital plane
View from above orbital plane
View from above satellite
View from above satellite

Ground track
Ground track

The orbit data is extracted from the following two-line orbital elements,

1 39762U 14028B   19345.73483049 +.00000027 +00000-0 +12166-3 0  9990
2 39762 082.4485 159.9383 0019881 214.7700 145.2081 12.42872269251996
Epoch (UTC): 11 December 2019 17:38:09
Eccentricity: 0.0019881
inclination: 82.4485°
perigee height: 1479 km
apogee height: 1510 km
right ascension of ascending node: 159.9383°
argument of perigee: 214.7700°
revolutions per day: 12.42872269
mean anomaly at epoch: 145.2081°
orbit number at epoch: 25199

The dashed part of the orbit path shows where the satellite is in the earth's shadow,  

DLR